Flag for Germany Past Weather in Leinfelden-Echterdingen, Baden-Württemberg, Germany — Yesterday and Last 2 Weeks

Now
73 °F

Scattered clouds.


Feels Like: 77 °F
Forecast: 52 / 66 °F
Wind: 9 mph from Southwest

Location: Stuttgart-Echterdingen

Current Time: Jul 1, 2016 at 1:41:21 PM

Latest Report: Jul 1, 2016 at 12:50 PM


Visibility: N/A

Pressure: 30.07 "Hg

Humidity: 57%

Dew Point: 57 °F

Location of Leinfelden-EchterdingenLocation

Past Weather in Leinfelden-Echterdingen — Graph

°F

Leinfelden-Echterdingen Temperature Yesterday

Maximum temperature yesterday: 77 °F (at 4:20 PM)
Minimum temperature yesterday: 59 °F (at 1:50 AM)
Average temperature yesterday: 67 °F

High & Low Weather Summary for the Past Weeks

 TemperatureHumidityPressure
High91 °F (Jun 23, 4:50 PM)100% (Jun 17, 3:20 AM)30.27 "Hg (Jun 17, 3:20 AM)
Low48 °F (Jun 20, 4:20 AM)30% (Jun 23, 5:20 PM)29.62 "Hg (Jun 16, 3:50 PM)
Average66 °F74%30.07 "Hg
* Reported Jun 16 12:20 PM — Jul 1 12:20 PM, Leinfelden-Echterdingen, Weather by CustomWeather, © 2016

Note: Actual official high and low records may vary slightly from our data, if they occured in-between our weather recording intervals... More about our weather records

Advertising

Leinfelden-Echterdingen Weather History for the Previous 24 Hours

Scroll right to see more
 ConditionsComfort  
Time TempWeatherWind HumidityBarometerVisibility
12:20 PM
Fri, Jul 1
72 °FScattered clouds.8 mph65%30.07 "HgN/A
11:50 AM72 °FScattered clouds.6 mph65%30.07 "HgN/A
11:20 AM73 °FPassing clouds.6 mph61%30.07 "HgN/A
10:50 AM72 °FPassing clouds.7 mph65%30.07 "HgN/A
10:20 AM70 °FPassing clouds.6 mph69%30.07 "HgN/A
9:50 AM70 °FScattered clouds.5 mph69%30.09 "HgN/A
9:20 AM66 °FScattered clouds.3 mph83%30.09 "HgN/A
8:50 AM66 °FScattered clouds.3 mph78%30.09 "HgN/A
8:20 AM64 °FPartly sunny.5 mph83%30.07 "HgN/A
7:50 AM64 °FPartly sunny.2 mph83%30.07 "HgN/A
7:20 AM63 °FPartly sunny.1 mph88%30.07 "HgN/A
6:50 AM63 °FPartly sunny.1 mph94%30.07 "HgN/A
6:20 AM61 °FPassing clouds.2 mph94%30.07 "HgN/A
5:50 AM61 °FPassing clouds.No wind94%30.07 "HgN/A
5:20 AM63 °FPassing clouds.2 mph88%30.07 "HgN/A
4:50 AM63 °FPassing clouds.1 mph88%30.07 "HgN/A
4:20 AM63 °FLight rain. Passing clouds.1 mph88%30.04 "HgN/A
3:50 AM63 °FLight rain. Passing clouds.1 mph88%30.07 "HgN/A
3:20 AM61 °FClear.1 mph94%30.07 "Hg10 mi
2:50 AM63 °FClear.1 mph94%30.07 "Hg10 mi
2:20 AM63 °FClear.1 mph94%30.07 "Hg10 mi
1:50 AM63 °FClear.2 mph94%30.07 "Hg10 mi
1:20 AM63 °FClear.1 mph94%30.07 "Hg10 mi
12:50 AM63 °FClear.2 mph94%30.07 "Hg10 mi
12:20 AM64 °FClear.1 mph88%30.07 "Hg10 mi
11:50 PM
Thu, Jun 30
66 °FPassing clouds.2 mph88%30.07 "HgN/A
11:20 PM66 °FPassing clouds.2 mph88%30.07 "HgN/A
10:50 PM66 °FPassing clouds.2 mph88%30.07 "HgN/A
10:20 PM66 °FPartly sunny.No wind88%30.07 "HgN/A
9:50 PM66 °FBroken clouds.3 mph88%30.04 "HgN/A
9:20 PM66 °FBroken clouds.1 mph88%30.04 "HgN/A
8:50 PM68 °FSprinkles. Partly sunny.2 mph83%30.01 "HgN/A
8:20 PM70 °FSprinkles. Partly sunny.7 mph73%30.01 "HgN/A
7:50 PM72 °FPassing clouds.5 mph65%29.98 "HgN/A
7:20 PM73 °FPassing clouds.6 mph57%29.98 "HgN/A
6:50 PM73 °FPassing clouds.5 mph57%29.98 "HgN/A
6:20 PM73 °FPassing clouds.5 mph61%29.98 "HgN/A
5:50 PM73 °FPassing clouds.7 mph61%29.98 "HgN/A
5:20 PM73 °FPassing clouds.9 mph61%29.98 "HgN/A
4:50 PM73 °FSunny.10 mph61%29.98 "Hg10 mi
4:20 PM77 °FPassing clouds.13 mph47%29.98 "HgN/A
3:50 PM75 °FSunny.6 mph54%29.98 "Hg10 mi
3:20 PM75 °FPassing clouds.12 mph50%29.98 "HgN/A
2:50 PM73 °FPassing clouds.8 mph57%30.01 "HgN/A
2:20 PM73 °FScattered clouds.7 mph61%30.01 "HgN/A
1:50 PM73 °FScattered clouds.8 mph61%30.01 "HgN/A
1:20 PM73 °FScattered clouds.8 mph57%30.01 "HgN/A
Weather by CustomWeather, © 2016

See weather overviewHow to use our weather pages